• In Hungary
  • List of Countries
  • For 7 days
  • Water Temperature
  • Satellite Maps
  • Weather Map
  • News
  • Weather Widgets
  • user-avatar
    Login

    Hourly Weather Nikiforovskaya Shacha

    Today, 25 September, Tuesday

    Time Temperature Precipitation Wind Pressure Humidity
    00:00 +11°C° 0.2 mm 7 mps 741 mmHg 64%
    01:00 +11°C° 0.3 mm 6 mps 741 mmHg 66%
    02:00 +10°C° 0.3 mm 6 mps 740 mmHg 68%
    03:00 +12°C° 0 mm 5 mps 739 mmHg 72%
    04:00 +10°C° 0.3 mm 6 mps 739 mmHg 74%
    05:00 +10°C° 0.3 mm 6 mps 739 mmHg 76%
    06:00 +10°C° 0.3 mm 6 mps 738 mmHg 79%
    07:00 +10°C° 0.5 mm 6 mps 739 mmHg 82%
    08:00 +10°C° 0.5 mm 5 mps 739 mmHg 84%
    09:00 +10°C° 0.5 mm 5 mps 739 mmHg 87%
    10:00 +10°C° 0.1 mm 5 mps 739 mmHg 82%
    11:00 +12°C° 0.1 mm 5 mps 739 mmHg 77%
    12:00 +12°C° 0.1 mm 5 mps 740 mmHg 72%
    13:00 +12°C° 0 mm 5 mps 740 mmHg 71%
    14:00 +12°C° 0 mm 5 mps 740 mmHg 70%
    15:00 +12°C° 0 mm 5 mps 741 mmHg 68%
    16:00 +10°C° 0 mm 5 mps 741 mmHg 70%
    17:00 +11°C° 0 mm 4 mps 742 mmHg 72%
    18:00 +10°C° 0 mm 4 mps 742 mmHg 74%
    19:00 +10°C° 0 mm 4 mps 743 mmHg 76%
    20:00 +8°C° 0 mm 4 mps 743 mmHg 78%
    21:00 +7°C° 0 mm 4 mps 744 mmHg 80%
    22:00 +7°C° 0 mm 4 mps 744 mmHg 81%
    23:00 +7°C° 0 mm 4 mps 745 mmHg 82%

    Tomorrow, 26 September, Wednesday

    Time Temperature Precipitation Wind Pressure Humidity
    00:00 +6°C° 0 mm 4 mps 745 mmHg 83%
    01:00 +6°C° 0 mm 4 mps 746 mmHg 83%
    02:00 +6°C° 0 mm 4 mps 746 mmHg 83%
    03:00 +5°C° 0 mm 4 mps 747 mmHg 83%
    04:00 +5°C° 0 mm 4 mps 747 mmHg 84%
    05:00 +5°C° 0 mm 4 mps 748 mmHg 85%
    06:00 +4°C° 0 mm 4 mps 749 mmHg 87%
    07:00 +5°C° 0 mm 4 mps 749 mmHg 82%
    08:00 +6°C° 0 mm 4 mps 750 mmHg 78%
    09:00 +7°C° 0 mm 4 mps 750 mmHg 74%
    10:00 +8°C° 0 mm 4 mps 751 mmHg 69%
    11:00 +10°C° 0 mm 4 mps 751 mmHg 64%
    12:00 +11°C° 0 mm 4 mps 752 mmHg 59%
    13:00 +11°C° 0 mm 4 mps 752 mmHg 58%
    14:00 +11°C° 0 mm 4 mps 752 mmHg 58%
    15:00 +10°C° 0 mm 4 mps 752 mmHg 58%
    16:00 +10°C° 0 mm 4 mps 752 mmHg 59%
    17:00 +9°C° 0 mm 3 mps 753 mmHg 61%
    18:00 +9°C° 0 mm 3 mps 753 mmHg 63%
    19:00 +8°C° 0 mm 2 mps 753 mmHg 65%
    20:00 +7°C° 0 mm 2 mps 753 mmHg 67%
    21:00 +7°C° 0 mm 2 mps 753 mmHg 69%
    22:00 +6°C° 0 mm 2 mps 753 mmHg 70%
    23:00 +5°C° 0 mm 3 mps 753 mmHg 71%

    Day after tomorrow, 27 September, Thursday

    Time Temperature Precipitation Wind Pressure Humidity
    00:00 +5°C° 0 mm 3 mps 752 mmHg 72%
    01:00 +4°C° 0 mm 3 mps 752 mmHg 72%
    02:00 +4°C° 0 mm 4 mps 752 mmHg 72%
    03:00 +4°C° 0 mm 4 mps 751 mmHg 72%
    04:00 +3°C° 0 mm 5 mps 751 mmHg 70%
    05:00 +3°C° 0 mm 5 mps 750 mmHg 68%
    06:00 +4°C° 0 mm 6 mps 749 mmHg 66%
    07:00 +4°C° 0.1 mm 7 mps 748 mmHg 65%
    08:00 +5°C° 0.1 mm 7 mps 748 mmHg 65%
    09:00 +5°C° 0.1 mm 8 mps 747 mmHg 64%
    10:00 +5°C° 1 mm 9 mps 746 mmHg 67%
    11:00 +5°C° 1 mm 9 mps 746 mmHg 70%
    12:00 +5°C° 1 mm 10 mps 745 mmHg 74%
    13:00 +5°C° 0.8 mm 10 mps 745 mmHg 76%
    14:00 +5°C° 0.8 mm 10 mps 744 mmHg 78%
    15:00 +5°C° 0.8 mm 10 mps 743 mmHg 80%
    16:00 +5°C° 0.7 mm 9 mps 743 mmHg 82%
    17:00 +6°C° 0.7 mm 9 mps 743 mmHg 84%
    18:00 +6°C° 0.7 mm 8 mps 742 mmHg 85%
    19:00 +6°C° 0.3 mm 8 mps 743 mmHg 86%
    20:00 +8°C° 0.3 mm 7 mps 743 mmHg 86%
    21:00 +8°C° 0.3 mm 7 mps 743 mmHg 86%
    22:00 +7°C° 0.1 mm 6 mps 743 mmHg 87%
    23:00 +7°C° 0.1 mm 5 mps 744 mmHg 88%

    28 September, Friday

    Time Temperature Precipitation Wind Pressure Humidity
    00:00 +7°C° 0.1 mm 5 mps 744 mmHg 89%
    01:00 +6°C° 0 mm 4 mps 744 mmHg 90%
    02:00 +6°C° 0 mm 4 mps 745 mmHg 91%
    03:00 +6°C° 0 mm 4 mps 745 mmHg 91%
    04:00 +5°C° 0 mm 4 mps 745 mmHg 92%
    05:00 +5°C° 0 mm 4 mps 745 mmHg 92%
    06:00 +5°C° 0 mm 4 mps 746 mmHg 92%
    07:00 +6°C° 0 mm 4 mps 746 mmHg 86%
    08:00 +7°C° 0 mm 5 mps 746 mmHg 81%
    09:00 +8°C° 0 mm 5 mps 746 mmHg 75%
    10:00 +9°C° 0 mm 5 mps 746 mmHg 68%
    11:00 +11°C° 0 mm 6 mps 746 mmHg 60%
    12:00 +13°C° 0 mm 6 mps 746 mmHg 53%
    13:00 +14°C° 0 mm 6 mps 746 mmHg 51%
    14:00 +14°C° 0 mm 7 mps 745 mmHg 49%
    15:00 +15°C° 0 mm 7 mps 744 mmHg 48%
    16:00 +14°C° 0 mm 7 mps 744 mmHg 54%
    17:00 +14°C° 0 mm 7 mps 744 mmHg 60%
    18:00 +13°C° 0 mm 6 mps 743 mmHg 66%
    19:00 +14°C° 0 mm 7 mps 743 mmHg 70%
    20:00 +14°C° 0 mm 7 mps 742 mmHg 73%
    21:00 +14°C° 0 mm 7 mps 742 mmHg 76%
    22:00 +13°C° 0.1 mm 8 mps 742 mmHg 77%
    23:00 +13°C° 0.1 mm 8 mps 742 mmHg 78%

    29 September, Saturday

    Time Temperature Precipitation Wind Pressure Humidity
    00:00 +13°C° 0.1 mm 8 mps 741 mmHg 79%
    01:00 +14°C° 0.1 mm 7 mps 742 mmHg 79%
    02:00 +13°C° 0.1 mm 6 mps 743 mmHg 79%
    03:00 +12°C° 0.1 mm 5 mps 743 mmHg 79%
    04:00 +10°C° 0 mm 5 mps 744 mmHg 80%
    05:00 +8°C° 0 mm 5 mps 745 mmHg 81%
    06:00 +6°C° 0 mm 4 mps 746 mmHg 82%
    07:00 +7°C° 0 mm 4 mps 747 mmHg 78%
    08:00 +7°C° 0 mm 4 mps 748 mmHg 74%
    09:00 +8°C° 0 mm 3 mps 749 mmHg 70%
    10:00 +8°C° 0 mm 3 mps 749 mmHg 63%
    11:00 +9°C° 0 mm 3 mps 750 mmHg 55%
    12:00 +10°C° 0 mm 3 mps 750 mmHg 47%
    13:00 +11°C° 0 mm 3 mps 750 mmHg 45%
    14:00 +11°C° 0 mm 3 mps 750 mmHg 44%
    15:00 +11°C° 0 mm 3 mps 751 mmHg 42%
    16:00 +10°C° 0 mm 3 mps 751 mmHg 45%
    17:00 +10°C° 0 mm 2 mps 751 mmHg 48%
    18:00 +9°C° 0 mm 2 mps 751 mmHg 51%
    19:00 +8°C° 0 mm 2 mps 752 mmHg 52%
    20:00 +8°C° 0 mm 2 mps 752 mmHg 53%
    21:00 +8°C° 0 mm 3 mps 753 mmHg 54%
    22:00 +7°C° 0 mm 3 mps 753 mmHg 55%
    23:00 +7°C° 0 mm 3 mps 753 mmHg 55%

    30 September, Sunday

    Time Temperature Precipitation Wind Pressure Humidity
    00:00 +7°C° 0 mm 3 mps 754 mmHg 56%
    01:00 +5°C° 0 mm 3 mps 754 mmHg 58%
    02:00 +5°C° 0 mm 2 mps 754 mmHg 60%
    03:00 +5°C° 0 mm 2 mps 754 mmHg 62%
    04:00 +4°C° 0 mm 2 mps 755 mmHg 63%
    05:00 +4°C° 0 mm 2 mps 755 mmHg 64%
    06:00 +3°C° 0 mm 2 mps 755 mmHg 65%
    07:00 +5°C° 0 mm 2 mps 755 mmHg 60%
    08:00 +6°C° 0 mm 2 mps 756 mmHg 55%
    09:00 +7°C° 0 mm 2 mps 756 mmHg 50%
    10:00 +8°C° 0 mm 2 mps 756 mmHg 46%
    11:00 +9°C° 0 mm 2 mps 756 mmHg 42%
    12:00 +10°C° 0 mm 2 mps 756 mmHg 38%
    13:00 +12°C° 0 mm 2 mps 756 mmHg 37%
    14:00 +12°C° 0 mm 1 mps 755 mmHg 36%
    15:00 +12°C° 0 mm 1 mps 755 mmHg 36%
    16:00 +11°C° 0 mm 1 mps 755 mmHg 40%
    17:00 +10°C° 0 mm 1 mps 755 mmHg 43%
    18:00 +9°C° 0 mm 1 mps 755 mmHg 47%
    19:00 +8°C° 0 mm 1 mps 755 mmHg 49%
    20:00 +8°C° 0 mm 1 mps 755 mmHg 51%
    21:00 +6°C° 0 mm 2 mps 755 mmHg 52%
    22:00 +6°C° 0 mm 2 mps 755 mmHg 54%
    23:00 +5°C° 0 mm 2 mps 755 mmHg 56%
    Show more